Dewpoint
55 54 53 53 53 53 53 53 53 53 54 53 54 55 55 55 56 57 57 58 58 59 59 60 60 60 60 61 61 61 60 57 55 53 45 48 59 61 65 64 65 65 65 49 40 35 28 25 23 23 29 31 36 32 39 38 37 35 24 28 22 24 17 24 18 23 24 20 19 20 19 18 18 20 21 20 18 21 23 25 28 45 53 58 58 59 60 60
55 53 53 53 54 53 52 53 53 53 53 54 54 54 54 55 56 56 57 58 58 58 59 59 60 60 60 60 61 60 58 56 50 48 44 57 63 64 64 65 64 64 60 43 34 30 25 21 21 19 30 24 41 35 38 36 38 32 25 23 23 24 19 18 19 21 18 20 19 20 19 18 18 18 20 15 17 18 20 21 29 38 49 58 59 59 59 60
54 53 53 52 53 52 52 52 53 53 52 53 53 54 54 55 55 56 56 57 58 58 59 59 60 60 60 60 60 59 58 54 45 38 49 61 63 63 65 64 64 64 48 43 42 36 30 24 22 15 30 26 30 32 34 33 29 29 28 18 22 26 20 21 21 20 21 19 18 18 18 15 17 19 21 16 15 18 19 18 25 30 46 56 57 58 59 59
54 53 52 52 52 52 52 52 52 52 52 52 53 53 54 54 55 55 56 56 57 58 58 59 60 60 60 60 60 58 55 46 42 43 54 61 61 64 64 63 63 60 57 52 47 44 38 29 20 14 25 25 26 34 27 32 21 26 26 26 24 19 22 20 23 23 21 18 17 17 18 17 18 19 16 16 13 15 14 18 21 23 35 54 57 57 57 58
54 53 52 52 52 52 52 52 52 52 52 52 52 52 53 54 54 55 56 56 57 57 58 58 59 60 59 59 58 56 46 19 27 49 53 59 61 63 61 62 63 55 45 43 37 34 32 25 16 21 22 12 29 23 21 27 29 28 21 24 22 24 22 22 24 24 23 20 18 17 15 17 20 19 17 14 11 13 13 14 18 21 30 49 57 57 57 57
55 54 52 51 51 52 52 52 52 51 52 52 52 52 53 54 54 54 55 55 56 57 58 59 59 59 60 59 55 56 35 8 38 53 59 60 62 61 61 62 64 54 41 35 34 30 24 19 17 20 15 15 20 16 14 20 23 20 19 20 22 22 21 24 25 23 21 20 19 19 21 21 19 20 21 16 12 14 21 26 25 21 29 45 56 57 56 56
55 54 52 52 51 52 51 52 51 51 52 52 52 52 53 53 54 54 55 55 56 57 57 58 59 59 59 58 55 54 33 33 47 54 61 63 61 62 58 62 63 47 39 32 31 31 27 23 16 21 16 15 14 14 20 19 21 18 16 20 22 23 23 24 22 25 22 21 21 22 23 20 20 18 21 19 19 17 22 26 30 27 29 45 55 55 56 56
56 55 54 52 51 51 51 51 51 51 52 52 52 52 53 53 53 54 55 55 56 57 57 58 58 59 58 56 41 40 37 33 47 51 59 63 55 55 56 50 44 46 37 33 33 27 26 20 15 21 13 7 11 16 20 14 15 16 16 23 22 24 24 23 22 22 22 21 23 22 20 19 19 19 22 21 20 19 25 27 31 30 34 45 53 54 55 56
55 54 53 52 51 51 52 51 51 52 51 52 52 53 53 53 53 54 54 55 56 57 57 58 58 59 57 52 46 33 24 48 50 48 54 47 43 50 49 43 44 37 38 35 34 32 28 23 22 17 11 18 15 17 18 8 8 15 18 23 23 23 23 22 23 23 22 22 23 20 21 21 23 23 20 20 21 22 24 26 30 31 33 40 50 51 53 55
55 54 53 53 53 52 52 51 51 52 52 52 52 53 53 53 54 54 55 55 56 56 57 57 58 58 54 48 36 21 40 48 49 44 46 43 41 40 43 46 38 36 34 32 32 31 27 29 29 30 26 17 19 20 22 14 13 23 21 23 22 22 22 24 22 23 25 24 22 21 22 21 23 21 17 17 19 21 23 24 26 31 32 34 40 46 49 52
55 54 53 53 53 52 52 51 51 50 51 52 52 53 53 53 54 54 55 55 56 56 57 57 58 58 55 49 24 13 49 50 49 42 40 41 41 41 45 43 37 40 37 38 37 34 35 34 37 32 25 14 21 21 20 23 25 22 23 23 23 24 25 24 23 23 24 23 23 23 23 24 23 24 18 18 24 22 21 22 24 25 29 32 36 39 43 47
54 54 53 53 52 52 51 51 52 51 51 51 52 52 53 53 54 54 55 55 56 56 57 57 58 56 50 40 35 30 46 46 44 41 45 45 42 42 45 41 37 42 36 33 41 44 40 36 32 21 11 23 19 23 22 25 23 22 21 19 21 23 24 24 22 23 25 23 25 24 16 14 24 21 21 22 25 23 21 22 23 24 23 25 28 36 39 41
54 53 53 52 52 51 51 51 52 52 51 51 52 53 53 54 54 55 55 56 56 56 57 58 57 57 47 21 29 47 48 47 43 41 43 44 41 43 39 42 43 36 36 35 37 40 41 35 30 24 29 20 19 13 23 26 26 23 21 20 21 20 18 21 24 25 23 24 26 17 8 11 16 20 20 23 26 24 22 22 22 22 22 24 25 24 30 37
54 53 52 51 51 51 51 51 51 51 52 52 52 53 53 53 54 55 55 56 57 57 58 58 55 52 39 14 43 49 48 49 45 42 45 45 40 44 41 43 41 35 43 35 36 36 39 35 31 26 28 22 21 30 23 23 21 19 20 21 22 17 18 22 24 24 22 25 26 16 14 13 14 15 20 25 25 23 22 22 22 23 23 23 26 25 24 26
54 53 52 51 51 51 51 51 52 52 52 53 53 53 53 54 54 55 56 56 57 58 58 58 54 41 24 32 43 47 60 50 42 45 47 45 41 38 34 36 34 33 31 32 32 34 32 35 26 24 23 27 27 20 19 19 18 20 13 16 23 18 22 23 27 22 20 24 28 19 21 16 16 17 21 27 25 23 22 22 23 24 23 23 24 25 25 24
54 53 53 53 52 51 51 52 52 54 54 53 53 53 54 55 55 55 56 56 57 57 56 56 56 43 21 23 46 55 48 41 40 46 45 46 48 37 38 38 39 34 31 29 36 34 32 33 27 25 24 22 22 21 20 20 20 21 16 22 19 23 25 23 24 27 24 24 25 17 11 17 15 23 25 26 25 24 22 23 24 23 23 23 23 25 25 26
55 54 54 53 52 53 53 53 53 55 55 54 54 54 55 55 56 57 57 57 57 56 55 47 50 42 21 30 35 42 39 47 48 47 46 44 42 41 38 37 32 30 32 32 36 33 31 27 29 27 25 20 21 25 20 19 22 19 22 17 28 15 20 21 23 25 30 23 22 24 20 19 17 19 21 25 27 26 23 23 23 23 23 23 24 25 26 26
55 54 54 54 53 54 55 55 55 54 55 55 54 55 54 56 57 56 57 57 55 55 53 53 39 27 20 33 30 33 45 43 46 42 43 44 40 36 34 30 30 29 32 29 29 28 32 27 27 24 23 23 18 23 24 17 21 20 20 18 16 20 21 20 22 22 26 24 22 22 23 22 22 22 22 22 25 25 23 23 23 23 23 23 24 25 25 26
55 56 56 55 54 55 55 55 55 55 55 55 56 56 57 57 55 52 53 53 31 24 25 31 18 19 22 22 35 44 47 47 46 43 35 40 42 38 37 35 33 29 30 27 26 27 31 32 32 28 19 19 18 18 22 25 25 25 23 22 25 21 23 19 21 25 24 23 22 21 20 20 21 21 22 22 23 23 23 23 23 23 23 23 23 23 25 27
56 56 56 55 56 56 56 56 55 54 55 54 52 52 50 44 42 39 43 43 36 23 28 30 24 35 39 40 42 43 47 47 35 41 43 44 40 36 33 34 39 35 27 29 32 29 37 26 21 24 25 21 21 20 21 25 16 18 25 25 20 22 22 25 26 25 26 18 19 21 21 21 20 20 20 19 18 20 23 23 23 23 23 23 23 23 23 24
57 57 57 56 57 56 56 55 55 55 55 53 51 49 33 38 25 25 36 38 37 34 32 33 28 30 34 42 44 41 34 37 38 40 44 46 38 32 30 31 30 30 34 33 29 31 34 28 26 28 29 23 19 20 20 19 20 18 23 23 21 24 17 24 25 26 25 18 19 20 18 18 16 16 16 18 19 19 18 19 20 21 22 23 24 24 24 23
57 57 57 57 56 56 56 55 55 56 55 52 51 48 41 42 41 44 34 21 27 38 39 36 34 37 39 38 40 43 40 36 38 40 46 42 36 30 30 30 27 27 31 31 30 28 27 27 30 30 25 23 21 20 19 19 24 27 18 25 24 22 20 25 25 26 25 21 18 19 20 19 19 19 20 20 21 21 20 19 19 19 19 20 22 24 25 27
57 57 57 57 57 57 56 56 56 56 50 50 47 45 45 48 47 48 46 30 25 40 35 34 34 37 37 37 39 42 31 33 33 40 41 42 35 33 30 27 25 23 32 27 26 27 22 27 27 27 23 21 20 20 21 23 26 24 21 20 17 25 22 21 21 23 24 19 16 24 23 23 23 24 23 23 21 20 20 20 21 22 20 19 19 19 22 25
57 57 57 57 57 57 56 56 56 53 50 50 47 48 49 50 50 50 44 26 29 35 34 33 32 36 36 31 38 39 26 26 35 34 40 37 30 35 28 27 24 28 28 26 27 21 22 23 26 24 24 21 21 23 20 17 19 26 28 25 24 25 24 22 21 23 23 21 29 24 22 17 21 21 21 19 22 22 22 21 18 20 26 24 27 28 26 22
57 57 57 57 57 57 56 56 52 51 50 47 46 48 51 51 50 47 36 26 21 32 39 36 38 37 36 43 42 36 31 33 39 36 39 35 30 31 30 28 24 26 27 25 26 25 21 26 31 25 29 26 24 20 26 25 18 20 27 27 23 24 23 28 29 19 20 19 25 24 16 18 20 22 18 15 10 7 12 20 18 17 18 22 23 24 26 35
56 57 57 57 57 57 56 52 51 51 47 43 47 51 52 50 49 46 30 21 19 28 28 24 30 26 40 37 40 40 28 29 37 42 38 40 40 31 29 27 26 24 25 24 21 24 21 29 31 27 27 29 26 24 27 22 22 17 14 33 27 26 30 28 26 20 16 11 23 25 16 18 20 13 9 7 6 6 9 13 14 20 20 21 23 25 28 31
54 56 57 57 57 57 53 51 53 51 48 47 49 51 51 49 51 44 18 19 14 26 21 34 25 28 37 35 36 25 18 23 39 39 36 42 33 35 26 25 25 25 26 27 25 22 28 29 30 32 29 29 26 21 26 22 21 17 29 34 30 28 27 29 29 23 19 26 29 27 23 15 14 7 10 9 11 11 13 13 13 12 17 22 23 27 31 34
53 54 56 58 57 56 54 53 51 50 47 47 49 50 50 49 50 38 25 9 8 26 26 26 28 38 38 34 33 16 23 33 31 35 39 42 37 30 24 24 24 24 26 25 21 29 28 29 30 29 30 29 24 25 30 26 22 23 33 35 30 30 31 30 27 25 24 20 17 24 27 15 19 19 19 17 14 13 12 12 13 13 13 15 23 25 32 35
52 53 54 57 57 57 56 54 52 51 50 51 49 50 51 48 41 22 21 9 26 26 33 21 36 38 35 33 24 29 28 33 23 35 42 37 39 29 25 25 25 24 26 24 21 30 32 33 32 32 29 24 30 33 36 30 28 29 35 35 34 33 31 31 25 24 23 13 15 21 25 10 15 22 14 15 12 11 9 9 11 15 17 17 30 37 38 39
51 52 53 56 57 56 55 55 53 54 52 52 51 50 50 43 28 24 13 3 24 20 30 31 30 32 30 28 25 27 27 34 36 37 34 33 35 33 31 32 26 23 27 32 33 34 31 32 35 32 27 29 33 33 35 35 31 35 34 30 30 29 27 26 25 22 16 5 15 22 26 13 10 18 13 12 16 12 12 14 21 28 34 35 34 35 37 38
51 52 53 55 54 54 55 52 53 52 53 52 52 51 42 35 24 18 5 14 34 30 27 26 29 32 26 25 22 24 33 34 34 33 31 32 30 30 28 22 32 30 28 29 28 32 33 32 31 32 33 34 33 31 33 36 36 35 29 27 22 20 25 24 22 22 6 11 19 24 25 18 11 16 20 19 13 15 18 14 21 27 29 34 36 37 37 39
51 52 53 54 56 55 52 51 53 53 52 53 50 42 31 23 27 18 13 19 22 26 25 23 30 29 25 27 27 25 30 33 33 31 30 30 30 27 26 21 28 25 22 24 23 30 27 29 33 33 35 32 31 28 28 32 34 30 22 16 14 11 19 10 16 11 10 9 18 23 24 22 20 15 15 17 18 17 18 17 21 26 28 33 34 36 38 38
51 52 53 55 55 54 54 53 51 51 52 50 45 38 27 25 16 21 23 19 17 28 26 30 29 25 26 25 24 24 33 29 32 30 32 32 28 29 31 24 31 25 19 25 26 25 27 30 33 32 31 33 29 24 24 25 28 25 20 18 12 3 7 5 10 13 12 19 21 19 21 18 19 15 20 18 16 15 18 19 25 28 31 34 36 37 38 38
51 51 51 53 53 56 54 53 51 53 51 49 37 32 30 19 18 31 24 24 27 33 29 30 28 26 23 20 25 28 25 27 30 28 30 30 28 26 27 27 29 27 27 24 24 27 17 20 27 29 25 32 30 25 24 24 29 27 26 17 18 14 8 1 5 1 10 15 20 23 12 18 10 14 20 18 18 21 21 23 28 30 32 34 36 38 39 39
51 50 51 53 54 55 54 54 54 53 51 46 39 27 21 19 19 22 21 28 29 32 30 28 26 26 24 24 27 27 28 27 31 29 29 28 26 26 25 24 29 27 27 22 23 23 21 22 25 30 29 32 31 32 29 30 26 27 28 25 14 15 19 6 15 13 11 11 9 14 15 19 16 18 22 23 23 19 15 18 22 22 25 28 30 32 38 40
48 47 50 51 52 54 54 54 54 53 49 43 33 25 21 23 21 28 25 34 30 30 27 27 29 24 22 23 31 24 29 29 30 28 28 28 27 25 27 26 25 25 21 15 24 21 22 18 31 32 31 30 30 31 26 27 15 21 25 21 24 28 20 16 15 22 12 9 11 16 18 18 19 9 12 14 13 13 12 12 12 14 22 23 23 27 33 38
43 44 44 49 51 54 54 53 53 52 48 41 32 26 28 31 37 36 38 33 34 30 28 24 26 24 22 23 26 25 28 32 29 27 24 29 25 28 27 27 28 25 23 15 19 27 20 22 31 30 29 30 33 34 32 34 28 26 21 24 29 31 27 16 9 12 7 7 11 13 9 7 4 9 18 14 13 12 12 11 11 15 20 19 24 28 32 38
43 42 44 44 49 54 53 53 52 50 46 38 31 33 36 32 40 40 41 40 33 31 29 26 27 29 24 26 28 26 30 25 28 26 24 27 24 30 26 26 27 24 24 19 14 21 23 13 23 31 31 33 34 32 30 32 33 24 25 32 22 19 15 22 15 6 5 6 9 13 12 11 9 7 7 7 8 8 11 14 12 12 15 19 23 26 35 37
42 39 35 41 52 53 53 53 51 48 43 35 33 33 37 36 40 39 43 39 39 33 28 30 30 28 29 25 29 29 29 21 29 26 23 26 19 26 24 25 28 24 23 20 15 22 21 15 19 29 31 32 31 29 25 26 32 33 31 26 31 24 21 17 18 15 15 4 1 11 5 6 17 15 8 8 8 11 9 11 15 15 17 18 21 24 36 37
39 35 34 47 53 52 53 52 47 45 40 32 34 35 40 36 37 38 40 42 38 34 32 34 37 27 31 31 31 27 30 26 28 28 25 27 23 29 27 27 26 27 22 21 22 29 20 16 10 25 30 29 26 27 24 27 28 27 26 24 25 23 26 24 21 16 11 4 5 3 6 9 14 13 11 10 10 13 16 20 23 23 23 22 22 29 37 37
38 35 34 51 52 52 51 48 43 39 37 39 39 37 39 37 39 37 38 41 43 42 41 37 38 33 35 32 32 35 29 29 30 28 26 26 23 20 29 28 29 27 25 25 24 24 17 17 18 26 27 26 27 30 27 28 28 28 26 25 25 25 19 13 17 21 13 9 9 3 7 13 17 15 10 14 20 19 24 24 24 23 21 33 36 37 37 35
32 22 31 52 52 51 47 40 39 41 39 37 36 39 39 43 39 38 38 40 41 42 41 37 38 36 38 38 36 34 29 28 30 29 28 26 27 28 32 32 29 30 25 23 22 29 22 25 26 23 27 28 29 30 34 31 31 29 27 25 28 25 24 17 13 17 17 18 17 15 8 13 13 11 19 22 23 23 23 22 21 22 23 33 38 39 39 38
31 26 43 47 52 49 44 39 40 39 38 39 41 40 42 41 40 40 38 40 38 40 40 38 37 36 37 36 37 35 34 30 31 29 33 29 33 33 33 32 32 32 30 28 27 29 30 19 17 21 28 29 31 33 32 33 32 29 29 28 26 25 25 22 18 20 20 18 16 14 13 14 19 20 19 20 20 22 23 24 22 23 29 33 36 37 37 38
32 31 38 45 51 48 41 33 34 36 37 39 39 39 42 41 41 40 39 40 38 39 36 36 37 37 36 39 37 34 37 27 33 32 30 33 30 38 36 32 31 31 29 29 25 31 22 25 21 15 15 23 25 28 29 30 30 27 26 29 28 27 26 25 21 20 17 21 20 18 14 16 24 20 23 24 22 22 21 21 25 23 29 34 36 37 37 38
31 32 34 41 46 46 38 36 34 36 37 37 37 37 38 39 41 41 40 39 40 39 38 36 36 39 37 40 37 38 38 35 31 36 34 33 33 39 36 37 34 32 36 37 36 33 28 29 23 18 16 15 15 21 20 23 28 28 28 29 29 27 26 23 22 19 19 21 22 18 17 17 17 23 21 22 24 22 23 27 28 31 29 30 30 31 33 37
29 23 30 34 42 43 42 42 40 36 34 36 36 36 37 36 39 41 40 39 38 39 38 39 39 40 38 38 37 36 37 38 34 32 33 31 32 35 40 38 36 36 37 39 36 36 29 32 27 23 21 19 21 22 26 30 26 25 26 28 28 29 29 25 24 21 20 21 21 22 21 19 19 19 22 22 23 22 24 25 24 25 25 27 31 34 34 35
32 25 25 23 37 38 38 40 39 38 33 35 32 34 34 35 37 38 41 36 38 38 38 38 38 36 37 37 35 35 36 36 37 35 35 33 34 36 38 38 37 37 36 33 38 33 30 27 29 30 29 27 28 31 32 30 27 27 27 27 28 28 29 28 25 22 24 20 20 22 24 23 21 21 21 21 23 24 25 24 24 24 25 28 28 29 34 37
30 30 28 30 28 25 32 33 37 38 37 35 31 33 33 34 35 34 38 40 40 39 37 37 38 37 37 36 36 33 35 35 35 33 35 34 34 36 35 39 35 38 36 36 41 36 32 27 30 29 28 30 31 32 32 31 30 29 28 27 26 27 27 27 28 27 27 24 21 23 25 24 23 23 24 25 25 24 24 24 25 25 27 28 28 28 29 31
35 32 30 30 27 28 30 32 35 36 36 36 33 31 31 34 34 36 36 37 38 37 38 34 36 37 37 37 36 34 35 33 33 35 31 32 34 33 32 35 38 37 38 36 36 37 33 29 31 29 28 29 30 31 32 31 30 30 30 30 30 28 28 29 29 30 29 27 28 28 28 28 27 27 27 28 28 28 27 29 29 28 28 29 28 29 29 29
31 30 28 29 28 26 29 31 35 35 34 35 33 31 30 31 32 34 35 36 34 36 38 36 36 37 37 38 37 35 36 36 35 34 34 35 33 35 34 35 34 32 35 34 35 36 33 30 33 32 29 29 31 32 32 33 33 30 32 33 33 32 32 31 29 29 28 29 30 30 30 29 30 29 29 29 29 29 29 29 28 29 29 29 29 29 30 30
35 33 34 28 24 24 26 29 31 33 32 33 32 32 31 29 30 32 32 37 36 34 36 36 36 36 37 37 36 36 37 37 36 37 37 36 34 36 35 34 35 33 34 34 34 35 34 31 33 32 31 30 32 32 32 32 33 33 33 33 34 33 32 32 31 31 29 29 29 29 28 28 29 30 30 29 30 30 30 30 30 30 30 30 30 31 31 31
36 36 36 33 27 30 25 27 30 32 29 31 32 31 31 30 29 31 28 33 37 36 37 37 37 36 35 36 36 36 38 39 39 38 39 39 39 39 40 39 37 34 33 34 34 34 34 32 32 32 31 30 32 31 31 31 31 31 32 33 34 34 34 33 34 34 32 32 30 29 29 30 30 31 31 31 31 30 31 30 31 31 31 31 31 31 31 32